SCD 2

Last updated on Sat Dec 13 2025 00:02:30 GMT+0000 (Coordinated Universal Time)

1 25504U 98060A 25345.80260890 .00000604 00000+0 11790-3 0 9991 2 25504 24.9932 147.6746 0016628 303.6253 190.8041 14.45422604433181
UTC large
Height (km)
Speed (km/s)
/
Latitude / Longitude
Inclination (degrees)
Orbital Period (minutes)
Azimuth
Elevation
Range (km)
Doppler Factor

Next 0 passes for location: London (51.5072 / 0.1276)

Sorry there are no passes over London.